Location: Unspecified
(0.0000°N, 0.0000°E)
Time: 23:05:45
(UTC+00:00)

Transit 2A - All Passes

Search period start: 28 May 2022 00:00
Search period end: 07 June 2022 00:00
Orbit: 598 x 959 km, 66.7° (Epoch: 28 May)

Date Brightness Start Highest point End Pass type
(mag) Time Alt. Az. Time Alt. Az. Time Alt. Az.
28 May - 03:49:00 10° S 03:55:10 53° ESE 04:01:08 10° NE visible
28 May - 05:35:05 10° W 05:38:06 14° WNW 05:41:05 10° NW visible
28 May - 16:24:42 10° NW 16:28:53 51° WSW 16:33:15 10° S daylight
29 May - 03:15:15 10° S 03:20:52 33° ESE 03:26:19 10° NE visible
29 May - 04:59:02 10° WSW 05:03:50 23° WNW 05:08:30 10° NNW visible
29 May - 15:50:19 10° NNW 15:54:37 83° ENE 15:59:07 10° SSE daylight
30 May - 02:41:56 10° SSE 02:46:33 21° ESE 02:51:03 10° ENE visible
30 May - 04:23:51 10° SW 04:29:35 36° WNW 04:35:06 10° N visible
30 May - 15:16:18 10° N 15:20:22 42° ENE 15:24:37 10° SE daylight
31 May - 02:09:37 10° SE 02:12:12 13° ESE 02:14:44 10° E visible
31 May - 03:49:06 10° SSW 03:55:19 58° WNW 04:01:17 10° N visible
31 May - 14:42:43 10° NNE 14:46:08 23° ENE 14:49:39 10° ESE daylight
31 May - 16:26:46 10° W 16:29:00 14° WSW 16:31:18 10° SW daylight
01 Jun - 03:14:40 10° SSW 03:21:03 89° E 03:27:09 10° NNE visible
01 Jun - 14:10:02 10° NE 14:11:53 12° ENE 14:13:44 10° E daylight
01 Jun - 15:51:07 10° NW 15:54:41 25° WSW 15:58:23 10° SSW daylight
02 Jun - 02:40:33 10° S 02:46:46 57° ESE 02:52:44 10° NNE visible
02 Jun - 04:27:11 10° W 04:29:41 12° WNW 04:32:08 10° NW visible
02 Jun - 15:16:15 10° NW 15:20:22 46° WSW 15:24:44 10° S daylight
03 Jun - 02:06:44 10° S 02:12:28 36° ESE 02:17:59 10° NE visible
03 Jun - 03:50:51 10° WSW 03:55:24 21° WNW 03:59:49 10° NNW visible
03 Jun - 14:41:47 10° NNW 14:46:06 89° WSW 14:50:38 10° SSE daylight
04 Jun - 01:33:20 10° SSE 01:38:08 23° ESE 01:42:48 10° ENE visible
04 Jun - 03:15:33 10° SW 03:21:09 33° WNW 03:26:31 10° N visible
04 Jun - 14:07:42 10° N 14:11:51 47° ENE 14:16:11 10° SE daylight
05 Jun - 01:00:45 10° SE 01:03:46 14° ESE 01:06:45 10° E night (unlit)
05 Jun - 02:40:44 10° SSW 02:46:53 53° WNW 02:52:46 10° N visible
05 Jun - 13:34:02 10° NNE 13:37:36 25° ENE 13:41:18 10° SE daylight
05 Jun - 15:18:35 10° W 15:20:30 13° WSW 15:22:27 10° SW daylight
06 Jun - 02:06:15 10° SSW 02:12:37 85° WNW 02:18:40 10° NNE visible
06 Jun - 13:01:06 10° NE 13:03:21 14° ENE 13:05:39 10° ESE daylight
06 Jun - 14:42:42 10° WNW 14:46:09 23° WSW 14:49:46 10° SSW daylight
